Skip navigation

Daily Weather Reports

[Select Refresh to Update]


Yesterday's Data File


9/17/14
Time

Wind Dir
 

Wind Spd
mph

Wind Gust
mph

Hum In
%

Humidity
%

Temp In
 F

Temp
 F

Raw Barom
in

Tot Rain
in

DailyRain
in

HourRain
in

24HrRain
in

RainRate
in/hr
12:00am 336 0 1 38 48 85.0 83.7 29.76 0.99 0.00 0.00 0.00 0.000
12:00am 336 0 0 38 49 85.0 83.7 29.76 0.99 0.00 0.00 0.00 0.000
12:01am 336 0 0 38 48 85.0 83.6 29.76 0.99 0.00 0.00 0.00 0.000
12:03am 336 0 0 38 48 85.0 83.5 29.76 0.99 0.00 0.00 0.00 0.000
12:04am 336 0 0 38 48 85.0 83.3 29.76 0.99 0.00 0.00 0.00 0.000
12:05am 336 0 1 38 49 85.0 83.2 29.76 0.99 0.00 0.00 0.00 0.000
12:06am 336 0 1 38 49 85.0 83.2 29.76 0.99 0.00 0.00 0.00 0.000
12:07am 336 0 1 38 49 85.0 83.2 29.76 0.99 0.00 0.00 0.00 0.000
12:08am 336 0 1 38 49 85.0 83.2 29.76 0.99 0.00 0.00 0.00 0.000
12:09am 336 0 1 38 49 85.0 83.2 29.76 0.99 0.00 0.00 0.00 0.000
12:10am 336 0 1 38 49 85.0 83.3 29.76 0.99 0.00 0.00 0.00 0.000
12:11am 336 0 1 38 49 85.0 83.3 29.76 0.99 0.00 0.00 0.00 0.000
12:11am 336 0 1 38 49 85.0 83.2 29.76 0.99 0.00 0.00 0.00 0.000
12:13am 336 0 1 38 49 85.0 83.2 29.76 0.99 0.00 0.00 0.00 0.000
12:14am 336 0 1 38 49 85.0 83.1 29.76 0.99 0.00 0.00 0.00 0.000
12:15am 336 0 1 38 49 85.0 83.1 29.76 0.99 0.00 0.00 0.00 0.000
12:16am 336 0 2 38 49 85.0 83.0 29.76 0.99 0.00 0.00 0.00 0.000
12:17am 336 0 2 38 49 85.0 82.9 29.76 0.99 0.00 0.00 0.00 0.000
12:18am 336 1 2 38 49 85.0 82.9 29.76 0.99 0.00 0.00 0.00 0.000
12:19am 336 0 3 38 49 85.0 82.8 29.76 0.99 0.00 0.00 0.00 0.000
12:20am 336 0 3 38 49 84.8 82.8 29.76 0.99 0.00 0.00 0.00 0.000
12:21am 336 0 3 38 49 84.8 82.8 29.76 0.99 0.00 0.00 0.00 0.000
12:22am 336 0 3 38 49 84.8 82.7 29.76 0.99 0.00 0.00 0.00 0.000
12:23am 336 0 3 38 50 84.8 82.7 29.76 0.99 0.00 0.00 0.00 0.000
12:24am 336 0 3 38 50 84.8 82.7 29.76 0.99 0.00 0.00 0.00 0.000
12:25am 336 2 3 38 50 84.8 82.6 29.76 0.99 0.00 0.00 0.00 0.000
12:26am 336 1 3 38 50 84.8 82.6 29.76 0.99 0.00 0.00 0.00 0.000
12:27am 336 0 3 38 49 84.8 82.5 29.76 0.99 0.00 0.00 0.00 0.000
12:28am 336 0 3 38 49 84.8 82.5 29.76 0.99 0.00 0.00 0.00 0.000
12:29am 336 0 3 38 49 84.8 82.5 29.76 0.99 0.00 0.00 0.00 0.000
12:30am 336 0 3 38 50 84.8 82.5 29.76 0.99 0.00 0.00 0.00 0.000
12:31am 336 0 0 38 50 84.8 82.4 29.76 0.99 0.00 0.00 0.00 0.000
12:32am 336 0 0 38 50 84.8 82.4 29.76 0.99 0.00 0.00 0.00 0.000
12:33am 336 0 0 39 50 84.8 82.4 29.76 0.99 0.00 0.00 0.00 0.000
12:34am 336 0 0 39 50 84.8 82.4 29.76 0.99 0.00 0.00 0.00 0.000
12:35am 336 0 2 39 50 84.8 82.5 29.76 0.99 0.00 0.00 0.00 0.000
12:36am 336 0 2 39 50 84.8 82.5 29.76 0.99 0.00 0.00 0.00 0.000
12:37am 336 0 2 39 49 84.8 82.4 29.76 0.99 0.00 0.00 0.00 0.000
12:38am 336 1 2 38 49 84.8 82.4 29.76 0.99 0.00 0.00 0.00 0.000
12:39am 336 1 2 38 50 84.8 82.4 29.76 0.99 0.00 0.00 0.00 0.000
12:40am 336 0 2 38 50 84.8 82.6 29.76 0.99 0.00 0.00 0.00 0.000
12:41am 336 0 2 38 50 84.8 82.6 29.75 0.99 0.00 0.00 0.00 0.000
12:42am 336 0 2 38 50 84.8 82.8 29.75 0.99 0.00 0.00 0.00 0.000
12:43am 336 1 2 38 50 84.8 82.8 29.75 0.99 0.00 0.00 0.00 0.000
12:44am 336 0 2 38 50 84.8 82.9 29.75 0.99 0.00 0.00 0.00 0.000
12:45am 336 1 2 38 50 84.8 83.0 29.75 0.99 0.00 0.00 0.00 0.000
12:46am 336 1 2 38 50 84.8 83.1 29.75 0.99 0.00 0.00 0.00 0.000
12:47am 336 0 2 38 50 84.8 83.2 29.75 0.99 0.00 0.00 0.00 0.000
12:47am 336 0 2 38 50 84.8 83.2 29.75 0.99 0.00 0.00 0.00 0.000
12:49am 336 0 2 38 50 84.8 83.3 29.75 0.99 0.00 0.00 0.00 0.000
12:50am 332 4 4 38 50 84.8 83.3 29.76 0.99 0.00 0.00 0.00 0.000
12:51am 326 1 4 38 50 84.6 83.3 29.75 0.99 0.00 0.00 0.00 0.000
12:52am 326 0 4 38 50 84.6 83.3 29.75 0.99 0.00 0.00 0.00 0.000
12:52am 326 0 4 38 50 84.6 83.3 29.75 0.99 0.00 0.00 0.00 0.000
12:54am 326 1 4 38 50 84.6 83.4 29.75 0.99 0.00 0.00 0.00 0.000
12:55am 328 4 4 38 50 84.6 83.4 29.75 0.99 0.00 0.00 0.00 0.000
12:56am 328 3 4 38 49 84.6 83.5 29.75 0.99 0.00 0.00 0.00 0.000
12:57am 328 2 4 39 49 84.6 83.6 29.75 0.99 0.00 0.00 0.00 0.000
12:58am 328 1 4 39 49 84.6 83.7 29.75 0.99 0.00 0.00 0.00 0.000
12:59am 328 3 4 39 49 84.6 83.7 29.75 0.99 0.00 0.00 0.00 0.000
1:00am 328 1 4 39 49 84.6 83.8 29.75 0.99 0.00 0.00 0.00 0.000
1:01am 323 4 5 39 49 84.6 83.9 29.75 0.99 0.00 0.00 0.00 0.000
1:02am 322 0 5 39 49 84.6 83.9 29.75 0.99 0.00 0.00 0.00 0.000
1:03am 323 1 5 39 49 84.6 83.9 29.75 0.99 0.00 0.00 0.00 0.000
1:04am 323 3 5 39 49 84.6 84.0 29.75 0.99 0.00 0.00 0.00 0.000
1:05am 323 1 5 39 49 84.6 84.0 29.75 0.99 0.00 0.00 0.00 0.000
1:06am 322 1 5 39 49 84.6 84.1 29.75 0.99 0.00 0.00 0.00 0.000
1:07am 322 1 5 39 49 84.6 84.1 29.74 0.99 0.00 0.00 0.00 0.000
1:08am 322 2 5 39 49 84.6 84.1 29.74 0.99 0.00 0.00 0.00 0.000
1:09am 323 1 5 39 49 84.6 84.1 29.74 0.99 0.00 0.00 0.00 0.000
1:10am 323 2 5 38 49 84.6 84.1 29.74 0.99 0.00 0.00 0.00 0.000
1:11am 323 0 5 38 49 84.6 84.2 29.74 0.99 0.00 0.00 0.00 0.000
1:12am 323 1 5 38 49 84.6 84.2 29.74 0.99 0.00 0.00 0.00 0.000
1:13am 322 0 5 38 49 84.6 84.3 29.74 0.99 0.00 0.00 0.00 0.000
1:14am 322 4 5 38 49 84.6 84.3 29.74 0.99 0.00 0.00 0.00 0.000
1:15am 322 1 5 38 49 84.6 84.3 29.75 0.99 0.00 0.00 0.00 0.000
1:16am 322 0 1 38 49 84.4 84.3 29.74 0.99 0.00 0.00 0.00 0.000
1:17am 322 1 3 38 49 84.4 84.3 29.74 0.99 0.00 0.00 0.00 0.000
1:17am 322 1 3 38 49 84.4 84.4 29.74 0.99 0.00 0.00 0.00 0.000
1:19am 322 0 3 39 49 84.4 84.4 29.74 0.99 0.00 0.00 0.00 0.000
1:20am 322 2 3 39 49 84.4 84.4 29.74 0.99 0.00 0.00 0.00 0.000
1:20am 322 0 3 39 49 84.4 84.4 29.74 0.99 0.00 0.00 0.00 0.000
1:22am 322 2 3 39 49 84.4 84.4 29.74 0.99 0.00 0.00 0.00 0.000
1:22am 322 1 3 39 49 84.4 84.4 29.74 0.99 0.00 0.00 0.00 0.000
1:24am 322 3 3 39 49 84.4 84.4 29.74 0.99 0.00 0.00 0.00 0.000
1:25am 322 1 3 39 49 84.4 84.4 29.74 0.99 0.00 0.00 0.00 0.000
1:26am 322 2 5 39 49 84.4 84.4 29.74 0.99 0.00 0.00 0.00 0.000
1:27am 322 4 5 39 49 84.4 84.5 29.74 0.99 0.00 0.00 0.00 0.000
1:28am 322 2 5 39 49 84.4 84.5 29.74 0.99 0.00 0.00 0.00 0.000
1:29am 322 2 5 39 49 84.4 84.5 29.74 0.99 0.00 0.00 0.00 0.000
1:30am 322 1 5 39 49 84.4 84.6 29.74 0.99 0.00 0.00 0.00 0.000
1:31am 322 3 4 39 49 84.4 84.6 29.74 0.99 0.00 0.00 0.00 0.000
1:32am 322 2 4 39 49 84.4 84.6 29.74 0.99 0.00 0.00 0.00 0.000
1:33am 322 0 4 39 49 84.4 84.7 29.74 0.99 0.00 0.00 0.00 0.000
1:34am 322 3 4 39 49 84.4 84.7 29.74 0.99 0.00 0.00 0.00 0.000
1:34am 323 3 5 39 49 84.4 84.7 29.74 0.99 0.00 0.00 0.00 0.000
1:36am 322 2 5 39 49 84.4 84.8 29.74 0.99 0.00 0.00 0.00 0.000
1:37am 323 3 5 39 49 84.4 84.8 29.74 0.99 0.00 0.00 0.00 0.000
1:38am 323 0 5 39 49 84.4 84.9 29.74 0.99 0.00 0.00 0.00 0.000
1:39am 323 3 5 39 49 84.4 84.9 29.74 0.99 0.00 0.00 0.00 0.000
1:40am 323 2 5 39 49 84.4 85.0 29.74 0.99 0.00 0.00 0.00 0.000
1:41am 322 0 5 39 49 84.4 85.0 29.74 0.99 0.00 0.00 0.00 0.000
1:42am 322 0 5 39 49 84.4 85.0 29.74 0.99 0.00 0.00 0.00 0.000
1:43am 322 1 5 39 49 84.4 85.0 29.74 0.99 0.00 0.00 0.00 0.000
1:44am 323 2 5 39 49 84.4 85.0 29.74 0.99 0.00 0.00 0.00 0.000
1:45am 323 2 5 39 49 84.4 85.0 29.74 0.99 0.00 0.00 0.00 0.000
1:46am 323 0 2 39 49 84.2 85.1 29.74 0.99 0.00 0.00 0.00 0.000
1:47am 322 1 2 39 49 84.2 85.1 29.74 0.99 0.00 0.00 0.00 0.000
1:48am 322 0 2 39 49 84.2 85.1 29.74 0.99 0.00 0.00 0.00 0.000
1:49am 322 0 2 39 49 84.2 85.1 29.74 0.99 0.00 0.00 0.00 0.000
1:50am 322 0 2 39 49 84.2 85.1 29.74 0.99 0.00 0.00 0.00 0.000
1:51am 323 0 2 39 49 84.2 85.1 29.74 0.99 0.00 0.00 0.00 0.000
1:52am 323 0 2 39 49 84.2 85.0 29.74 0.99 0.00 0.00 0.00 0.000
1:53am 323 0 2 39 49 84.2 84.9 29.74 0.99 0.00 0.00 0.00 0.000
1:54am 323 0 2 39 49 84.2 84.8 29.74 0.99 0.00 0.00 0.00 0.000
1:55am 323 0 2 39 49 84.2 84.7 29.74 0.99 0.00 0.00 0.00 0.000
1:56am 323 0 2 39 49 84.2 84.6 29.74 0.99 0.00 0.00 0.00 0.000
1:57am 322 0 2 39 50 84.2 84.4 29.74 0.99 0.00 0.00 0.00 0.000
1:58am 322 0 2 39 50 84.2 84.4 29.74 0.99 0.00 0.00 0.00 0.000
1:59am 323 1 2 39 50 84.2 84.3 29.74 0.99 0.00 0.00 0.00 0.000
2:00am 323 0 2 39 50 84.2 84.4 29.74 0.99 0.00 0.00 0.00 0.000
2:01am 322 0 0 39 50 84.2 84.4 29.74 0.99 0.00 0.00 0.00 0.000
2:01am 323 0 0 39 50 84.2 84.4 29.74 0.99 0.00 0.00 0.00 0.000
2:03am 322 0 1 39 50 84.2 84.2 29.74 0.99 0.00 0.00 0.00 0.000
2:04am 322 0 1 39 50 84.2 84.2 29.74 0.99 0.00 0.00 0.00 0.000
2:04am 323 0 1 39 50 84.2 84.1 29.74 0.99 0.00 0.00 0.00 0.000
2:06am 323 0 1 39 50 84.2 84.1 29.74 0.99 0.00 0.00 0.00 0.000
2:07am 322 0 1 39 50 84.2 83.9 29.74 0.99 0.00 0.00 0.00 0.000
2:08am 323 2 2 39 50 84.2 83.8 29.74 0.99 0.00 0.00 0.00 0.000
2:09am 323 3 3 39 50 84.2 83.6 29.74 0.99 0.00 0.00 0.00 0.000
2:10am 322 3 3 39 50 84.2 83.4 29.74 0.99 0.00 0.00 0.00 0.000
2:11am 322 2 3 39 50 84.2 83.3 29.74 0.99 0.00 0.00 0.00 0.000
2:11am 323 3 3 39 51 84.2 83.1 29.74 0.99 0.00 0.00 0.00 0.000
2:13am 323 2 3 39 51 84.2 83.0 29.74 0.99 0.00 0.00 0.00 0.000
2:14am 323 1 3 39 51 84.2 82.9 29.74 0.99 0.00 0.00 0.00 0.000
2:15am 323 1 3 39 51 84.2 82.9 29.74 0.99 0.00 0.00 0.00 0.000
2:16am 323 1 2 39 51 84.2 82.8 29.74 0.99 0.00 0.00 0.00 0.000
2:17am 322 1 2 39 51 84.2 82.7 29.74 0.99 0.00 0.00 0.00 0.000
2:18am 323 0 2 39 51 84.2 82.6 29.74 0.99 0.00 0.00 0.00 0.000
2:19am 323 0 2 39 52 84.2 82.5 29.74 0.99 0.00 0.00 0.00 0.000
2:20am 323 0 2 39 52 84.2 82.5 29.74 0.99 0.00 0.00 0.00 0.000
2:20am 322 0 2 39 52 84.2 82.4 29.74 0.99 0.00 0.00 0.00 0.000
2:22am 323 0 2 39 52 84.2 82.3 29.74 0.99 0.00 0.00 0.00 0.000
2:23am 323 0 2 40 52 84.2 82.2 29.74 0.99 0.00 0.00 0.00 0.000
2:24am 323 0 2 40 53 84.2 82.1 29.74 0.99 0.00 0.00 0.00 0.000
2:25am 323 0 2 40 53 84.2 82.0 29.74 0.99 0.00 0.00 0.00 0.000
2:26am 323 0 2 40 53 84.2 81.9 29.74 0.99 0.00 0.00 0.00 0.000
2:27am 323 0 2 40 53 84.2 81.8 29.74 0.99 0.00 0.00 0.00 0.000
2:28am 323 0 2 40 54 84.2 81.7 29.74 0.99 0.00 0.00 0.00 0.000
2:29am 322 0 2 40 54 84.2 81.7 29.74 0.99 0.00 0.00 0.00 0.000
2:30am 322 0 2 40 54 84.2 81.6 29.74 0.99 0.00 0.00 0.00 0.000
2:31am 323 0 0 40 54 84.2 81.6 29.74 0.99 0.00 0.00 0.00 0.000
2:32am 323 0 0 40 54 84.2 81.6 29.74 0.99 0.00 0.00 0.00 0.000
2:33am 322 0 0 40 54 84.2 81.5 29.74 0.99 0.00 0.00 0.00 0.000
2:34am 323 0 0 40 54 84.2 81.5 29.74 0.99 0.00 0.00 0.00 0.000
2:35am 323 0 0 40 54 84.2 81.4 29.74 0.99 0.00 0.00 0.00 0.000
2:36am 323 0 0 40 54 84.2 81.3 29.74 0.99 0.00 0.00 0.00 0.000
2:37am 323 0 0 40 54 84.2 81.2 29.74 0.99 0.00 0.00 0.00 0.000
2:38am 322 0 0 39 55 84.2 81.1 29.74 0.99 0.00 0.00 0.00 0.000
2:39am 322 0 0 39 55 84.0 81.1 29.74 0.99 0.00 0.00 0.00 0.000
2:40am 322 0 0 39 55 84.0 81.0 29.74 0.99 0.00 0.00 0.00 0.000
2:41am 323 0 0 39 56 84.0 80.9 29.74 0.99 0.00 0.00 0.00 0.000
2:42am 323 0 0 39 56 84.0 80.8 29.74 0.99 0.00 0.00 0.00 0.000
2:43am 323 0 0 39 56 84.0 80.8 29.74 0.99 0.00 0.00 0.00 0.000
2:44am 323 0 0 39 56 84.0 80.7 29.74 0.99 0.00 0.00 0.00 0.000
2:45am 323 0 0 39 56 84.0 80.7 29.74 0.99 0.00 0.00 0.00 0.000
2:46am 322 0 0 40 55 84.0 80.7 29.74 0.99 0.00 0.00 0.00 0.000
2:47am 323 0 0 40 55 84.0 80.6 29.74 0.99 0.00 0.00 0.00 0.000
2:48am 322 0 0 40 55 84.0 80.6 29.74 0.99 0.00 0.00 0.00 0.000
2:49am 322 0 0 40 55 84.0 80.5 29.74 0.99 0.00 0.00 0.00 0.000
2:49am 323 0 0 40 56 84.0 80.5 29.74 0.99 0.00 0.00 0.00 0.000
2:51am 322 0 0 40 56 84.0 80.5 29.74 0.99 0.00 0.00 0.00 0.000
2:52am 322 0 0 40 56 84.0 80.5 29.74 0.99 0.00 0.00 0.00 0.000
2:53am 323 0 0 40 56 84.0 80.5 29.74 0.99 0.00 0.00 0.00 0.000
2:54am 323 0 0 40 56 84.0 80.4 29.74 0.99 0.00 0.00 0.00 0.000
2:55am 323 0 0 40 56 84.0 80.4 29.74 0.99 0.00 0.00 0.00 0.000
2:56am 323 0 0 40 56 84.0 80.5 29.74 0.99 0.00 0.00 0.00 0.000
2:57am 322 0 0 40 56 84.0 80.4 29.74 0.99 0.00 0.00 0.00 0.000
2:57am 323 0 0 40 56 84.0 80.4 29.74 0.99 0.00 0.00 0.00 0.000
2:58am 323 0 1 40 56 84.0 80.4 29.74 0.99 0.00 0.00 0.00 0.000
3:00am 323 0 1 40 56 84.0 80.3 29.74 0.99 0.00 0.00 0.00 0.000
3:01am 323 0 1 40 56 84.0 80.3 29.75 0.99 0.00 0.00 0.00 0.000
3:02am 323 0 1 40 56 84.0 80.2 29.75 0.99 0.00 0.00 0.00 0.000
3:03am 323 1 1 40 56 84.0 80.2 29.75 0.99 0.00 0.00 0.00 0.000
3:04am 322 0 1 40 56 84.0 80.1 29.75 0.99 0.00 0.00 0.00 0.000
3:05am 322 0 1 40 56 84.0 80.1 29.75 0.99 0.00 0.00 0.00 0.000
3:06am 323 0 1 40 56 84.0 80.1 29.75 0.99 0.00 0.00 0.00 0.000
3:07am 323 0 1 40 57 84.0 80.0 29.75 0.99 0.00 0.00 0.00 0.000
3:08am 323 0 1 40 57 84.0 80.0 29.75 0.99 0.00 0.00 0.00 0.000
3:09am 323 0 1 40 57 84.0 80.0 29.75 0.99 0.00 0.00 0.00 0.000
3:10am 322 1 2 40 57 84.0 80.0 29.75 0.99 0.00 0.00 0.00 0.000
3:11am 322 1 3 40 57 84.0 79.9 29.75 0.99 0.00 0.00 0.00 0.000
3:12am 322 1 3 40 57 84.0 79.9 29.75 0.99 0.00 0.00 0.00 0.000
3:13am 323 2 3 40 57 84.0 79.9 29.75 0.99 0.00 0.00 0.00 0.000
3:14am 323 1 3 40 57 84.0 80.0 29.75 0.99 0.00 0.00 0.00 0.000
3:15am 323 0 3 40 57 84.0 80.0 29.75 0.99 0.00 0.00 0.00 0.000
3:16am 323 0 1 40 57 83.8 80.1 29.75 0.99 0.00 0.00 0.00 0.000
3:17am 323 0 1 40 56 83.8 80.0 29.75 0.99 0.00 0.00 0.00 0.000
3:18am 322 0 1 40 56 83.8 79.9 29.75 0.99 0.00 0.00 0.00 0.000
3:19am 322 2 2 40 56 83.8 79.8 29.75 0.99 0.00 0.00 0.00 0.000
3:20am 323 2 3 40 56 83.8 79.7 29.75 0.99 0.00 0.00 0.00 0.000
3:21am 322 2 3 40 56 83.8 79.6 29.75 0.99 0.00 0.00 0.00 0.000
3:22am 323 1 3 40 56 83.8 79.4 29.75 0.99 0.00 0.00 0.00 0.000
3:23am 323 1 3 40 56 83.8 79.2 29.75 0.99 0.00 0.00 0.00 0.000
3:24am 323 0 3 40 56 83.8 79.0 29.75 0.99 0.00 0.00 0.00 0.000
3:25am 322 1 3 40 57 83.8 79.0 29.75 0.99 0.00 0.00 0.00 0.000
3:25am 323 0 3 40 57 83.8 79.0 29.75 0.99 0.00 0.00 0.00 0.000
3:27am 322 0 3 40 57 83.8 79.1 29.75 0.99 0.00 0.00 0.00 0.000
3:28am 323 0 3 40 57 83.8 79.1 29.75 0.99 0.00 0.00 0.00 0.000
3:29am 323 0 3 40 57 83.8 79.2 29.75 0.99 0.00 0.00 0.00 0.000
3:30am 323 0 3 40 57 83.8 79.2 29.75 0.99 0.00 0.00 0.00 0.000
3:31am 323 0 1 41 57 83.8 79.3 29.75 0.99 0.00 0.00 0.00 0.000
3:32am 322 0 1 41 57 83.8 79.3 29.75 0.99 0.00 0.00 0.00 0.000
3:33am 322 1 1 41 57 83.8 79.4 29.75 0.99 0.00 0.00 0.00 0.000
3:34am 323 0 1 41 57 83.8 79.4 29.75 0.99 0.00 0.00 0.00 0.000
3:35am 323 0 1 41 57 83.8 79.5 29.75 0.99 0.00 0.00 0.00 0.000
3:36am 323 0 1 41 57 83.8 79.4 29.75 0.99 0.00 0.00 0.00 0.000
3:37am 322 0 1 41 57 83.8 79.4 29.75 0.99 0.00 0.00 0.00 0.000
3:37am 322 0 1 41 58 83.8 79.4 29.75 0.99 0.00 0.00 0.00 0.000
3:39am 322 0 1 41 57 83.8 79.3 29.75 0.99 0.00 0.00 0.00 0.000
3:40am 323 0 1 41 58 83.8 79.3 29.74 0.99 0.00 0.00 0.00 0.000
3:41am 323 0 1 41 58 83.8 79.3 29.75 0.99 0.00 0.00 0.00 0.000
3:42am 323 0 1 40 58 83.8 79.2 29.75 0.99 0.00 0.00 0.00 0.000
3:43am 323 0 1 40 58 83.8 79.2 29.75 0.99 0.00 0.00 0.00 0.000
3:44am 322 0 1 40 58 83.8 79.2 29.75 0.99 0.00 0.00 0.00 0.000
3:45am 323 0 1 40 58 83.8 79.2 29.74 0.99 0.00 0.00 0.00 0.000
3:46am 323 0 0 40 58 83.8 79.1 29.74 0.99 0.00 0.00 0.00 0.000
3:47am 323 0 0 40 58 83.8 79.0 29.74 0.99 0.00 0.00 0.00 0.000
3:48am 323 0 0 40 58 83.8 79.0 29.74 0.99 0.00 0.00 0.00 0.000
3:49am 323 0 0 40 58 83.8 79.0 29.74 0.99 0.00 0.00 0.00 0.000
3:50am 322 0 0 40 58 83.8 79.0 29.74 0.99 0.00 0.00 0.00 0.000
3:51am 322 0 0 40 58 83.8 79.0 29.74 0.99 0.00 0.00 0.00 0.000
3:52am 322 0 0 40 58 83.8 79.0 29.74 0.99 0.00 0.00 0.00 0.000
3:53am 323 0 1 40 58 83.6 79.0 29.74 0.99 0.00 0.00 0.00 0.000
3:54am 323 0 1 40 58 83.6 79.0 29.74 0.99 0.00 0.00 0.00 0.000
3:55am 322 0 1 41 58 83.6 79.0 29.74 0.99 0.00 0.00 0.00 0.000
3:56am 323 0 1 41 58 83.6 79.0 29.74 0.99 0.00 0.00 0.00 0.000
3:57am 323 0 1 41 58 83.6 79.1 29.74 0.99 0.00 0.00 0.00 0.000
3:58am 322 0 1 41 58 83.6 79.2 29.74 0.99 0.00 0.00 0.00 0.000
3:59am 323 1 2 41 58 83.6 79.2 29.74 0.99 0.00 0.00 0.00 0.000
4:00am 322 1 3 41 57 83.6 79.3 29.74 0.99 0.00 0.00 0.00 0.000
4:01am 323 0 1 41 57 83.6 79.3 29.75 0.99 0.00 0.00 0.00 0.000
4:02am 323 0 1 41 57 83.6 79.4 29.75 0.99 0.00 0.00 0.00 0.000
4:03am 323 0 1 41 57 83.6 79.4 29.75 0.99 0.00 0.00 0.00 0.000
4:04am 323 0 1 41 57 83.6 79.4 29.75 0.99 0.00 0.00 0.00 0.000
4:05am 323 0 1 41 56 83.6 79.4 29.75 0.99 0.00 0.00 0.00 0.000
4:06am 322 0 1 41 56 83.6 79.4 29.75 0.99 0.00 0.00 0.00 0.000
4:07am 322 0 1 41 56 83.6 79.4 29.75 0.99 0.00 0.00 0.00 0.000
4:08am 323 0 2 41 56 83.6 79.3 29.74 0.99 0.00 0.00 0.00 0.000
4:09am 323 1 2 41 56 83.6 79.1 29.74 0.99 0.00 0.00 0.00 0.000
4:10am 323 1 2 41 56 83.6 79.0 29.74 0.99 0.00 0.00 0.00 0.000
4:11am 323 1 2 41 56 83.6 79.0 29.74 0.99 0.00 0.00 0.00 0.000
4:12am 323 0 2 41 57 83.6 79.0 29.75 0.99 0.00 0.00 0.00 0.000
4:13am 322 1 2 41 57 83.6 78.9 29.74 0.99 0.00 0.00 0.00 0.000
4:14am 322 1 2 41 57 83.6 78.9 29.74 0.99 0.00 0.00 0.00 0.000
4:15am 323 0 2 41 57 83.6 78.8 29.74 0.99 0.00 0.00 0.00 0.000
4:16am 323 0 1 41 57 83.6 78.8 29.75 0.99 0.00 0.00 0.00 0.000
4:17am 323 0 1 41 57 83.6 78.8 29.75 0.99 0.00 0.00 0.00 0.000
4:18am 323 0 1 41 57 83.6 78.8 29.74 0.99 0.00 0.00 0.00 0.000
4:19am 322 0 1 41 58 83.6 78.9 29.74 0.99 0.00 0.00 0.00 0.000
4:20am 322 0 1 40 58 83.6 78.9 29.74 0.99 0.00 0.00 0.00 0.000
4:21am 323 0 1 40 58 83.6 78.9 29.75 0.99 0.00 0.00 0.00 0.000
4:21am 323 0 1 40 58 83.6 79.0 29.75 0.99 0.00 0.00 0.00 0.000
4:23am 323 0 1 40 58 83.6 79.0 29.75 0.99 0.00 0.00 0.00 0.000
4:24am 323 0 1 40 58 83.6 79.0 29.75 0.99 0.00 0.00 0.00 0.000
4:25am 323 0 1 40 58 83.6 79.0 29.75 0.99 0.00 0.00 0.00 0.000
4:26am 322 0 1 40 58 83.6 79.0 29.74 0.99 0.00 0.00 0.00 0.000
4:27am 322 0 1 40 58 83.6 79.0 29.75 0.99 0.00 0.00 0.00 0.000
4:28am 323 0 1 41 58 83.4 79.0 29.74 0.99 0.00 0.00 0.00 0.000
4:29am 323 0 1 41 58 83.4 79.0 29.74 0.99 0.00 0.00 0.00 0.000
4:30am 323 0 1 41 58 83.4 78.8 29.75 0.99 0.00 0.00 0.00 0.000
4:31am 323 0 0 41 59 83.4 78.7 29.75 0.99 0.00 0.00 0.00 0.000
4:32am 323 0 0 41 59 83.4 78.6 29.74 0.99 0.00 0.00 0.00 0.000
4:33am 323 0 0 41 59 83.4 78.5 29.74 0.99 0.00 0.00 0.00 0.000
4:34am 322 0 0 41 59 83.4 78.5 29.75 0.99 0.00 0.00 0.00 0.000
4:35am 323 0 0 41 59 83.4 78.4 29.74 0.99 0.00 0.00 0.00 0.000
4:36am 323 0 0 41 59 83.4 78.3 29.74 0.99 0.00 0.00 0.00 0.000
4:37am 323 0 0 41 59 83.4 78.2 29.75 0.99 0.00 0.00 0.00 0.000
4:38am 323 0 0 41 59 83.4 78.1 29.75 0.99 0.00 0.00 0.00 0.000
4:39am 323 0 0 41 59 83.4 78.0 29.75 0.99 0.00 0.00 0.00 0.000
4:40am 323 0 0 41 59 83.4 78.0 29.75 0.99 0.00 0.00 0.00 0.000
4:41am 323 0 0 41 59 83.4 77.9 29.75 0.99 0.00 0.00 0.00 0.000
4:42am 322 0 1 41 60 83.4 77.8 29.75 0.99 0.00 0.00 0.00 0.000
4:43am 323 0 1 41 60 83.4 77.8 29.75 0.99 0.00 0.00 0.00 0.000
4:44am 323 0 1 41 60 83.4 77.8 29.75 0.99 0.00 0.00 0.00 0.000
4:45am 322 0 1 41 60 83.4 77.7 29.75 0.99 0.00 0.00 0.00 0.000
4:46am 322 0 0 41 60 83.4 77.7 29.75 0.99 0.00 0.00 0.00 0.000
4:47am 322 0 0 41 60 83.4 77.7 29.75 0.99 0.00 0.00 0.00 0.000
4:48am 322 0 0 41 60 83.4 77.8 29.75 0.99 0.00 0.00 0.00 0.000
4:49am 322 0 0 41 60 83.4 77.8 29.75 0.99 0.00 0.00 0.00 0.000
4:50am 323 0 0 41 60 83.4 77.8 29.75 0.99 0.00 0.00 0.00 0.000
4:51am 323 0 0 41 60 83.4 77.7 29.75 0.99 0.00 0.00 0.00 0.000
4:52am 322 0 0 41 60 83.4 77.7 29.75 0.99 0.00 0.00 0.00 0.000
4:53am 323 0 0 41 60 83.4 77.7 29.75 0.99 0.00 0.00 0.00 0.000
4:54am 322 0 0 41 60 83.4 77.6 29.75 0.99 0.00 0.00 0.00 0.000
4:55am 322 0 0 41 60 83.4 77.6 29.75 0.99 0.00 0.00 0.00 0.000
4:56am 323 1 1 41 60 83.4 77.6 29.75 0.99 0.00 0.00 0.00 0.000
4:57am 323 0 1 41 60 83.4 77.6 29.75 0.99 0.00 0.00 0.00 0.000
4:58am 323 0 1 41 60 83.4 77.6 29.75 0.99 0.00 0.00 0.00 0.000
4:59am 323 0 1 41 60 83.4 77.6 29.75 0.99 0.00 0.00 0.00 0.000
5:00am 323 0 1 41 60 83.2 77.5 29.75 0.99 0.00 0.00 0.00 0.000
5:01am 322 2 2 41 60 83.2 77.5 29.75 0.99 0.00 0.00 0.00 0.000
5:02am 322 1 2 41 61 83.2 77.5 29.75 0.99 0.00 0.00 0.00 0.000
5:03am 323 1 2 41 60 83.2 77.5 29.75 0.99 0.00 0.00 0.00 0.000
5:04am 323 1 2 41 60 83.2 77.5 29.75 0.99 0.00 0.00 0.00 0.000
5:05am 323 1 2 41 60 83.2 77.5 29.75 0.99 0.00 0.00 0.00 0.000
5:06am 322 0 2 41 59 83.2 77.4 29.75 0.99 0.00 0.00 0.00 0.000
5:07am 323 0 2 41 59 83.2 77.3 29.75 0.99 0.00 0.00 0.00 0.000
5:08am 322 0 2 41 60 83.2 77.2 29.75 0.99 0.00 0.00 0.00 0.000
5:09am 323 0 2 41 60 83.2 77.1 29.75 0.99 0.00 0.00 0.00 0.000
5:10am 323 0 2 41 60 83.2 77.0 29.75 0.99 0.00 0.00 0.00 0.000
5:11am 323 0 2 41 60 83.2 77.0 29.75 0.99 0.00 0.00 0.00 0.000
5:12am 323 0 2 41 61 83.2 77.0 29.75 0.99 0.00 0.00 0.00 0.000
5:13am 323 0 2 41 61 83.2 77.0 29.75 0.99 0.00 0.00 0.00 0.000
5:14am 323 0 2 41 61 83.2 77.0 29.75 0.99 0.00 0.00 0.00 0.000
5:15am 322 0 2 41 61 83.2 77.0 29.75 0.99 0.00 0.00 0.00 0.000
5:16am 323 0 0 41 61 83.2 77.0 29.75 0.99 0.00 0.00 0.00 0.000
5:17am 322 0 0 41 61 83.2 76.9 29.76 0.99 0.00 0.00 0.00 0.000
5:18am 323 0 0 41 61 83.2 77.0 29.75 0.99 0.00 0.00 0.00 0.000
5:19am 323 0 0 41 61 83.2 77.0 29.76 0.99 0.00 0.00 0.00 0.000
5:19am 322 0 0 41 61 83.2 77.0 29.76 0.99 0.00 0.00 0.00 0.000
5:21am 322 1 1 41 61 83.2 77.0 29.76 0.99 0.00 0.00 0.00 0.000
5:22am 322 1 1 41 61 83.2 77.0 29.76 0.99 0.00 0.00 0.00 0.000
5:23am 322 1 1 41 61 83.2 77.0 29.75 0.99 0.00 0.00 0.00 0.000
5:24am 322 0 1 41 60 83.2 77.1 29.76 0.99 0.00 0.00 0.00 0.000
5:25am 323 1 1 41 60 83.2 77.1 29.76 0.99 0.00 0.00 0.00 0.000
5:26am 323 0 1 41 60 83.2 77.0 29.76 0.99 0.00 0.00 0.00 0.000
5:27am 323 0 1 41 60 83.2 77.1 29.76 0.99 0.00 0.00 0.00 0.000
5:28am 322 0 1 41 60 83.2 77.1 29.76 0.99 0.00 0.00 0.00 0.000
5:29am 322 1 2 41 61 83.2 77.2 29.76 0.99 0.00 0.00 0.00 0.000
5:30am 322 0 2 41 61 83.2 77.2 29.76 0.99 0.00 0.00 0.00 0.000
5:30am 323 1 1 41 61 83.2 77.2 29.76 0.99 0.00 0.00 0.00 0.000
5:32am 323 1 2 41 60 83.2 77.2 29.76 0.99 0.00 0.00 0.00 0.000
5:33am 323 0 2 41 60 83.2 77.2 29.76 0.99 0.00 0.00 0.00 0.000
5:34am 323 0 2 41 60 83.2 77.2 29.75 0.99 0.00 0.00 0.00 0.000
5:35am 322 2 2 41 60 83.2 77.1 29.75 0.99 0.00 0.00 0.00 0.000
5:36am 322 2 3 41 60 83.0 77.1 29.76 0.99 0.00 0.00 0.00 0.000
5:37am 323 3 3 41 60 83.0 77.0 29.76 0.99 0.00 0.00 0.00 0.000
5:38am 323 3 4 41 60 83.0 76.9 29.76 0.99 0.00 0.00 0.00 0.000
5:39am 323 3 4 41 60 83.0 76.9 29.76 0.99 0.00 0.00 0.00 0.000
5:40am 323 3 4 41 60 83.0 76.7 29.76 0.99 0.00 0.00 0.00 0.000
5:41am 323 2 4 41 60 83.0 76.6 29.76 0.99 0.00 0.00 0.00 0.000
5:42am 322 1 4 41 61 83.0 76.5 29.76 0.99 0.00 0.00 0.00 0.000
5:43am 322 2 4 41 61 83.0 76.5 29.76 0.99 0.00 0.00 0.00 0.000
5:44am 323 1 4 41 61 83.0 76.5 29.76 0.99 0.00 0.00 0.00 0.000
5:45am 323 2 4 41 61 83.0 76.5 29.76 0.99 0.00 0.00 0.00 0.000
5:46am 323 3 3 41 62 83.0 76.5 29.76 0.99 0.00 0.00 0.00 0.000
5:47am 323 3 3 41 62 83.0 76.6 29.76 0.99 0.00 0.00 0.00 0.000
5:48am 322 2 3 41 62 83.0 76.7 29.76 0.99 0.00 0.00 0.00 0.000
5:49am 323 3 3 41 61 83.0 76.8 29.76 0.99 0.00 0.00 0.00 0.000
5:50am 323 3 3 41 61 83.0 76.9 29.76 0.99 0.00 0.00 0.00 0.000
5:51am 323 3 3 41 61 83.0 77.0 29.76 0.99 0.00 0.00 0.00 0.000
5:52am 323 2 3 42 61 83.0 77.0 29.76 0.99 0.00 0.00 0.00 0.000
5:52am 322 2 3 42 61 83.0 77.0 29.76 0.99 0.00 0.00 0.00 0.000
5:54am 323 2 3 42 61 83.0 77.0 29.76 0.99 0.00 0.00 0.00 0.000
5:55am 323 2 3 42 60 83.0 77.0 29.76 0.99 0.00 0.00 0.00 0.000
5:56am 323 2 3 42 60 83.0 77.0 29.76 0.99 0.00 0.00 0.00 0.000
5:57am 323 2 3 42 60 83.0 77.0 29.76 0.99 0.00 0.00 0.00 0.000
5:58am 323 1 3 42 60 83.0 77.1 29.76 0.99 0.00 0.00 0.00 0.000
5:59am 323 2 3 42 61 83.0 77.2 29.76 0.99 0.00 0.00 0.00 0.000
6:00am 323 2 3 42 61 83.0 77.3 29.76 0.99 0.00 0.00 0.00 0.000
6:01am 323 2 2 42 60 83.0 77.4 29.76 0.99 0.00 0.00 0.00 0.000
6:01am 323 2 2 42 60 83.0 77.4 29.76 0.99 0.00 0.00 0.00 0.000
6:03am 323 1 3 42 60 83.0 77.4 29.76 0.99 0.00 0.00 0.00 0.000
6:04am 322 0 3 42 60 83.0 77.4 29.76 0.99 0.00 0.00 0.00 0.000
6:05am 323 0 3 42 60 83.0 77.4 29.76 0.99 0.00 0.00 0.00 0.000
6:06am 323 0 3 42 60 83.0 77.4 29.76 0.99 0.00 0.00 0.00 0.000
6:06am 322 0 3 42 60 83.0 77.4 29.76 0.99 0.00 0.00 0.00 0.000
6:08am 323 0 3 41 61 83.0 77.5 29.76 0.99 0.00 0.00 0.00 0.000
6:09am 322 0 3 41 61 83.0 77.5 29.76 0.99 0.00 0.00 0.00 0.000
6:10am 322 0 3 41 60 82.9 77.6 29.76 0.99 0.00 0.00 0.00 0.000
6:11am 323 0 3 41 60 82.9 77.6 29.76 0.99 0.00 0.00 0.00 0.000
6:12am 323 0 3 41 60 82.9 77.6 29.76 0.99 0.00 0.00 0.00 0.000
6:13am 323 0 3 41 60 82.9 77.6 29.76 0.99 0.00 0.00 0.00 0.000
6:14am 323 0 3 41 60 82.9 77.6 29.76 0.99 0.00 0.00 0.00 0.000
6:15am 322 0 3 41 60 82.9 77.6 29.76 0.99 0.00 0.00 0.00 0.000
6:16am 322 0 0 41 61 82.9 77.6 29.76 0.99 0.00 0.00 0.00 0.000
6:17am 323 0 0 41 61 82.9 77.6 29.76 0.99 0.00 0.00 0.00 0.000
6:18am 323 0 0 41 61 82.9 77.5 29.76 0.99 0.00 0.00 0.00 0.000
6:19am 323 0 0 41 60 82.9 77.6 29.76 0.99 0.00 0.00 0.00 0.000
6:20am 323 0 0 41 60 82.9 77.6 29.76 0.99 0.00 0.00 0.00 0.000
6:21am 323 0 0 42 61 82.9 77.5 29.76 0.99 0.00 0.00 0.00 0.000
6:22am 322 0 0 42 61 82.9 77.5 29.76 0.99 0.00 0.00 0.00 0.000
6:23am 322 0 0 42 61 82.9 77.4 29.77 0.99 0.00 0.00 0.00 0.000
6:24am 322 0 0 42 61 82.9 77.4 29.76 0.99 0.00 0.00 0.00 0.000
6:25am 323 0 0 42 61 82.9 77.3 29.76 0.99 0.00 0.00 0.00 0.000
6:26am 323 0 0 42 61 82.9 77.2 29.77 0.99 0.00 0.00 0.00 0.000
6:27am 323 0 0 42 61 82.9 77.2 29.77 0.99 0.00 0.00 0.00 0.000
6:28am 322 0 0 42 61 82.9 77.1 29.77 0.99 0.00 0.00 0.00 0.000
6:29am 322 0 0 42 61 82.9 77.1 29.77 0.99 0.00 0.00 0.00 0.000
6:30am 322 0 0 42 61 82.9 77.0 29.77 0.99 0.00 0.00 0.00 0.000
6:31am 322 0 0 42 61 82.9 77.0 29.77 0.99 0.00 0.00 0.00 0.000
6:32am 323 1 1 42 61 82.9 76.9 29.77 0.99 0.00 0.00 0.00 0.000
6:33am 323 0 1 42 61 82.9 76.9 29.77 0.99 0.00 0.00 0.00 0.000
6:33am 322 0 1 42 61 82.9 76.9 29.77 0.99 0.00 0.00 0.00 0.000
6:35am 323 0 1 42 61 82.9 76.9 29.77 0.99 0.00 0.00 0.00 0.000
6:36am 323 0 1 42 61 82.9 77.0 29.77 0.99 0.00 0.00 0.00 0.000
6:37am 323 0 1 42 61 82.9 77.0 29.77 0.99 0.00 0.00 0.00 0.000
6:38am 323 0 1 42 61 82.9 77.0 29.77 0.99 0.00 0.00 0.00 0.000
6:39am 322 0 1 42 61 82.9 77.0 29.77 0.99 0.00 0.00 0.00 0.000
6:40am 323 0 1 42 61 82.9 77.0 29.77 0.99 0.00 0.00 0.00 0.000
6:41am 323 0 1 42 61 82.9 77.0 29.77 0.99 0.00 0.00 0.00 0.000
6:42am 322 0 1 42 61 82.9 77.0 29.77 0.99 0.00 0.00 0.00 0.000
6:43am 322 0 1 42 61 82.9 77.0 29.77 0.99 0.00 0.00 0.00 0.000
6:44am 323 0 1 42 61 82.9 77.0 29.77 0.99 0.00 0.00 0.00 0.000
6:45am 322 0 1 42 62 82.9 77.0 29.77 0.99 0.00 0.00 0.00 0.000
6:46am 323 0 0 42 62 82.9 77.0 29.77 0.99 0.00 0.00 0.00 0.000
6:47am 323 0 1 42 62 82.9 77.0 29.77 0.99 0.00 0.00 0.00 0.000
6:48am 323 0 1 42 62 82.9 77.0 29.77 0.99 0.00 0.00 0.00 0.000
6:49am 323 0 1 42 61 82.9 77.0 29.77 0.99 0.00 0.00 0.00 0.000
6:50am 322 0 1 42 61 82.9 77.1 29.77 0.99 0.00 0.00 0.00 0.000
6:51am 322 0 1 42 61 82.9 77.1 29.77 0.99 0.00 0.00 0.00 0.000
6:52am 322 1 2 42 61 82.7 77.2 29.77 0.99 0.00 0.00 0.00 0.000
6:53am 323 0 2 42 61 82.7 77.3 29.77 0.99 0.00 0.00 0.00 0.000
6:54am 323 0 2 42 61 82.7 77.4 29.77 0.99 0.00 0.00 0.00 0.000
6:55am 323 0 2 42 61 82.7 77.5 29.77 0.99 0.00 0.00 0.00 0.000
6:56am 322 0 2 42 61 82.7 77.6 29.77 0.99 0.00 0.00 0.00 0.000
6:57am 322 0 2 42 60 82.7 77.7 29.77 0.99 0.00 0.00 0.00 0.000
6:58am 322 0 2 42 60 82.7 77.8 29.77 0.99 0.00 0.00 0.00 0.000
6:59am 323 0 2 42 60 82.7 77.9 29.77 0.99 0.00 0.00 0.00 0.000
7:00am 323 0 2 42 60 82.7 77.9 29.77 0.99 0.00 0.00 0.00 0.000
7:01am 323 0 2 42 60 82.7 77.9 29.78 0.99 0.00 0.00 0.00 0.000
7:02am 323 2 2 42 60 82.7 77.9 29.77 0.99 0.00 0.00 0.00 0.000
7:03am 322 1 2 42 60 82.7 78.0 29.77 0.99 0.00 0.00 0.00 0.000
7:04am 322 0 2 42 60 82.7 78.0 29.78 0.99 0.00 0.00 0.00 0.000
7:05am 322 2 2 42 60 82.7 78.1 29.78 0.99 0.00 0.00 0.00 0.000
7:06am 323 1 2 42 59 82.7 78.1 29.78 0.99 0.00 0.00 0.00 0.000
7:07am 323 0 2 42 60 82.7 78.1 29.77 0.99 0.00 0.00 0.00 0.000
7:08am 323 1 2 42 60 82.7 78.2 29.77 0.99 0.00 0.00 0.00 0.000
7:09am 323 1 2 42 59 82.7 78.2 29.78 0.99 0.00 0.00 0.00 0.000
7:09am 322 0 2 42 59 82.7 78.2 29.77 0.99 0.00 0.00 0.00 0.000
7:11am 322 0 2 42 59 82.7 78.3 29.77 0.99 0.00 0.00 0.00 0.000
7:12am 322 0 2 42 59 82.7 78.4 29.78 0.99 0.00 0.00 0.00 0.000
7:13am 323 1 2 42 59 82.7 78.5 29.77 0.99 0.00 0.00 0.00 0.000
7:14am 323 1 2 42 59 82.7 78.5 29.77 0.99 0.00 0.00 0.00 0.000
7:15am 323 0 2 42 59 82.7 78.6 29.78 0.99 0.00 0.00 0.00 0.000
7:16am 323 1 1 42 58 82.7 78.7 29.77 0.99 0.00 0.00 0.00 0.000
7:17am 322 2 2 42 58 82.7 78.8 29.78 0.99 0.00 0.00 0.00 0.000
7:18am 323 1 2 42 58 82.7 79.0 29.78 0.99 0.00 0.00 0.00 0.000
7:19am 323 1 2 42 58 82.7 79.0 29.77 0.99 0.00 0.00 0.00 0.000
7:20am 323 2 2 42 58 82.7 79.1 29.78 0.99 0.00 0.00 0.00 0.000
7:21am 323 1 2 42 58 82.7 79.3 29.78 0.99 0.00 0.00 0.00 0.000
7:22am 323 0 2 42 58 82.7 79.4 29.77 0.99 0.00 0.00 0.00 0.000
7:23am 323 0 2 42 58 82.7 79.6 29.78 0.99 0.00 0.00 0.00 0.000
7:24am 323 0 2 42 58 82.7 79.7 29.77 0.99 0.00 0.00 0.00 0.000
7:25am 323 0 2 42 58 82.7 79.8 29.77 0.99 0.00 0.00 0.00 0.000
7:26am 322 1 2 42 57 82.7 80.0 29.77 0.99 0.00 0.00 0.00 0.000
7:27am 322 0 2 42 57 82.7 80.2 29.77 0.99 0.00 0.00 0.00 0.000
7:28am 323 0 2 42 57 82.7 80.3 29.77 0.99 0.00 0.00 0.00 0.000
7:29am 323 0 2 42 57 82.7 80.4 29.77 0.99 0.00 0.00 0.00 0.000
7:30am 322 0 2 42 57 82.7 80.6 29.77 0.99 0.00 0.00 0.00 0.000
7:31am 323 0 0 42 56 82.7 80.7 29.77 0.99 0.00 0.00 0.00 0.000
7:32am 322 0 0 42 56 82.7 80.8 29.78 0.99 0.00 0.00 0.00 0.000
7:33am 322 0 0 42 56 82.7 80.9 29.78 0.99 0.00 0.00 0.00 0.000
7:34am 323 0 0 42 56 82.5 81.0 29.78 0.99 0.00 0.00 0.00 0.000
7:35am 323 0 0 42 56 82.5 81.0 29.78 0.99 0.00 0.00 0.00 0.000
7:36am 323 0 0 42 56 82.5 81.1 29.78 0.99 0.00 0.00 0.00 0.000
7:37am 323 0 0 42 56 82.5 81.2 29.78 0.99 0.00 0.00 0.00 0.000
7:38am 322 0 0 42 56 82.5 81.3 29.78 0.99 0.00 0.00 0.00 0.000
7:39am 322 0 0 42 56 82.5 81.4 29.78 0.99 0.00 0.00 0.00 0.000
7:40am 323 0 0 42 55 82.5 81.4 29.78 0.99 0.00 0.00 0.00 0.000
7:41am 323 0 0 42 56 82.5 81.5 29.78 0.99 0.00 0.00 0.00 0.000
7:42am 323 0 0 42 56 82.5 81.5 29.77 0.99 0.00 0.00 0.00 0.000
7:43am 323 0 0 42 56 82.5 81.6 29.78 0.99 0.00 0.00 0.00 0.000
7:44am 323 0 0 42 57 82.5 81.6 29.78 0.99 0.00 0.00 0.00 0.000
7:45am 322 0 0 42 57 82.5 81.6 29.77 0.99 0.00 0.00 0.00 0.000
7:46am 323 0 0 42 57 82.5 81.6 29.77 0.99 0.00 0.00 0.00 0.000
7:47am 323 0 0 42 57 82.5 81.6 29.77 0.99 0.00 0.00 0.00 0.000
7:48am 323 0 0 42 57 82.5 81.7 29.78 0.99 0.00 0.00 0.00 0.000
7:49am 323 0 0 42 57 82.5 81.7 29.78 0.99 0.00 0.00 0.00 0.000
7:50am 323 0 0 42 57 82.5 81.7 29.78 0.99 0.00 0.00 0.00 0.000
7:51am 323 0 0 43 57 82.5 81.8 29.78 0.99 0.00 0.00 0.00 0.000
7:52am 323 0 0 43 56 82.5 81.8 29.78 0.99 0.00 0.00 0.00 0.000
7:53am 323 0 0 43 56 82.5 81.9 29.78 0.99 0.00 0.00 0.00 0.000
7:54am 323 0 0 42 56 82.7 82.0 29.78 0.99 0.00 0.00 0.00 0.000
7:55am 323 0 0 42 56 82.7 82.2 29.78 0.99 0.00 0.00 0.00 0.000
7:56am 323 0 0 42 55 82.7 82.3 29.78 0.99 0.00 0.00 0.00 0.000
7:57am 323 0 0 42 55 82.7 82.4 29.78 0.99 0.00 0.00 0.00 0.000
7:58am 323 0 0 42 55 82.7 82.5 29.78 0.99 0.00 0.00 0.00 0.000
7:59am 322 0 0 42 55 82.7 82.6 29.78 0.99 0.00 0.00 0.00 0.000
8:00am 322 0 0 42 55 82.7 82.7 29.78 0.99 0.00 0.00 0.00 0.000
8:01am 322 0 1 42 55 82.7 82.8 29.78 0.99 0.00 0.00 0.00 0.000
8:02am 323 0 1 42 55 82.7 82.9 29.78 0.99 0.00 0.00 0.00 0.000
8:03am 323 0 1 42 54 82.7 83.0 29.78 0.99 0.00 0.00 0.00 0.000
8:04am 323 0 1 42 54 82.7 83.0 29.78 0.99 0.00 0.00 0.00 0.000
8:05am 323 0 1 42 55 82.7 83.1 29.78 0.99 0.00 0.00 0.00 0.000
8:06am 323 0 1 42 55 82.7 83.2 29.78 0.99 0.00 0.00 0.00 0.000
8:07am 322 0 1 42 55 82.7 83.2 29.78 0.99 0.00 0.00 0.00 0.000
8:08am 322 0 1 42 55 82.7 83.3 29.78 0.99 0.00 0.00 0.00 0.000
8:09am 323 0 1 42 54 82.7 83.3 29.78 0.99 0.00 0.00 0.00 0.000
8:10am 322 0 1 42 53 82.7 83.4 29.78 0.99 0.00 0.00 0.00 0.000
8:11am 322 0 1 42 53 82.7 83.5 29.78 0.99 0.00 0.00 0.00 0.000
8:12am 322 1 1 42 53 82.7 83.6 29.78 0.99 0.00 0.00 0.00 0.000
8:13am 322 1 1 42 52 82.7 83.7 29.78 0.99 0.00 0.00 0.00 0.000
8:14am 322 0 1 42 52 82.7 83.8 29.78 0.99 0.00 0.00 0.00 0.000
8:15am 323 0 1 42 52 82.7 83.9 29.78 0.99 0.00 0.00 0.00 0.000
8:16am 323 0 1 43 52 82.7 84.0 29.78 0.99 0.00 0.00 0.00 0.000
8:17am 323 1 1 43 51 82.7 84.1 29.78 0.99 0.00 0.00 0.00 0.000
8:18am 322 0 1 43 51 82.7 84.2 29.78 0.99 0.00 0.00 0.00 0.000
8:19am 322 1 1 43 51 82.7 84.2 29.78 0.99 0.00 0.00 0.00 0.000
8:20am 322 0 2 43 51 82.7 84.3 29.78 0.99 0.00 0.00 0.00 0.000
8:21am 323 0 2 43 50 82.9 84.4 29.78 0.99 0.00 0.00 0.00 0.000
8:22am 323 1 2 43 50 82.9 84.5 29.78 0.99 0.00 0.00 0.00 0.000
8:23am 323 1 2 43 50 82.9 84.6 29.78 0.99 0.00 0.00 0.00 0.000
8:24am 323 1 2 42 51 82.9 84.8 29.78 0.99 0.00 0.00 0.00 0.000
8:25am 323 0 2 42 51 82.9 84.8 29.78 0.99 0.00 0.00 0.00 0.000
8:26am 322 1 2 42 51 82.9 84.8 29.78 0.99 0.00 0.00 0.00 0.000
8:26am 323 0 2 42 51 82.9 84.9 29.78 0.99 0.00 0.00 0.00 0.000
8:28am 323 0 2 42 51 82.9 85.0 29.78 0.99 0.00 0.00 0.00 0.000
8:29am 323 2 2 42 51 82.9 85.1 29.78 0.99 0.00 0.00 0.00 0.000
8:30am 323 1 2 42 51 82.9 85.1 29.78 0.99 0.00 0.00 0.00 0.000
8:31am 323 1 1 42 50 82.9 85.2 29.78 0.99 0.00 0.00 0.00 0.000
8:32am 322 0 1 42 50 82.9 85.2 29.78 0.99 0.00 0.00 0.00 0.000
8:33am 322 0 1 42 50 82.9 85.3 29.78 0.99 0.00 0.00 0.00 0.000
8:34am 322 0 2 42 50 82.9 85.3 29.78 0.99 0.00 0.00 0.00 0.000
8:35am 323 0 2 42 50 82.9 85.4 29.78 0.99 0.00 0.00 0.00 0.000
8:36am 323 1 2 42 50 83.0 85.5 29.78 0.99 0.00 0.00 0.00 0.000
8:37am 323 2 2 42 50 83.0 85.5 29.77 0.99 0.00 0.00 0.00 0.000
8:38am 321 2 3 42 50 83.0 85.6 29.78 0.99 0.00 0.00 0.00 0.000
8:39am 321 1 3 42 49 83.0 85.6 29.77 0.99 0.00 0.00 0.00 0.000
8:40am 321 2 3 42 49 83.0 85.6 29.78 0.99 0.00 0.00 0.00 0.000
8:41am 321 1 3 42 49 83.0 85.7 29.78 0.99 0.00 0.00 0.00 0.000
8:42am 321 0 3 43 49 83.0 85.7 29.78 0.99 0.00 0.00 0.00 0.000
8:43am 321 1 3 43 49 83.2 85.7 29.78 0.99 0.00 0.00 0.00 0.000
8:44am 321 2 3 43 49 83.2 85.8 29.78 0.99 0.00 0.00 0.00 0.000
8:45am 321 1 3 43 49 83.2 85.9 29.78 0.99 0.00 0.00 0.00 0.000
8:46am 321 2 3 43 49 83.2 85.9 29.78 0.99 0.00 0.00 0.00 0.000
8:47am 321 1 3 43 48 83.2 86.0 29.78 0.99 0.00 0.00 0.00 0.000
8:48am 319 3 4 43 48 83.2 86.0 29.78 0.99 0.00 0.00 0.00 0.000
8:49am 318 3 4 42 48 83.2 86.1 29.78 0.99 0.00 0.00 0.00 0.000
8:50am 317 2 4 42 48 83.2 86.1 29.78 0.99 0.00 0.00 0.00 0.000
8:51am 317 1 4 42 48 83.2 86.1 29.78 0.99 0.00 0.00 0.00 0.000
8:52am 317 0 4 42 48 83.4 86.2 29.78 0.99 0.00 0.00 0.00 0.000
8:53am 317 0 4 42 48 83.4 86.2 29.78 0.99 0.00 0.00 0.00 0.000
8:54am 317 0 4 42 48 83.4 86.2 29.78 0.99 0.00 0.00 0.00 0.000
8:55am 317 1 4 42 48 83.4 86.3 29.78 0.99 0.00 0.00 0.00 0.000
8:56am 317 0 4 42 48 83.4 86.4 29.78 0.99 0.00 0.00 0.00 0.000
8:57am 317 0 4 42 48 83.4 86.6 29.78 0.99 0.00 0.00 0.00 0.000
8:58am 317 1 4 42 48 83.4 86.6 29.78 0.99 0.00 0.00 0.00 0.000
8:59am 175 2 4 42 49 83.4 86.7 29.78 0.99 0.00 0.00 0.00 0.000
9:00am 188 3 4 42 48 83.6 86.7 29.78 0.99 0.00 0.00 0.00 0.000
9:01am 202 4 4 42 48 83.6 86.6 29.78 0.99 0.00 0.00 0.00 0.000
9:02am 224 5 5 42 48 83.6 86.6 29.78 0.99 0.00 0.00 0.00 0.000
9:03am 203 5 5 42 48 83.6 86.5 29.78 0.99 0.00 0.00 0.00 0.000
9:04am 203 2 5 42 47 83.6 86.4 29.78 0.99 0.00 0.00 0.00 0.000
9:05am 203 1 5 43 48 83.6 86.4 29.78 0.99 0.00 0.00 0.00 0.000
9:06am 203 1 5 43 48 83.6 86.5 29.78 0.99 0.00 0.00 0.00 0.000
9:07am 204 1 5 43 48 83.6 86.6 29.78 0.99 0.00 0.00 0.00 0.000
9:08am 203 0 5 43 48 83.8 86.6 29.78 0.99 0.00 0.00 0.00 0.000
9:09am 204 1 5 42 47 83.8 86.6 29.78 0.99 0.00 0.00 0.00 0.000
9:10am 203 0 5 42 48 83.8 86.7 29.78 0.99 0.00 0.00 0.00 0.000
9:11am 204 0 5 42 47 83.8 86.7 29.78 0.99 0.00 0.00 0.00 0.000
9:12am 203 1 5 42 48 83.8 86.7 29.78 0.99 0.00 0.00 0.00 0.000
9:13am 204 0 5 42 47 83.8 86.7 29.78 0.99 0.00 0.00 0.00 0.000
9:14am 203 0 5 42 48 83.8 86.7 29.78 0.99 0.00 0.00 0.00 0.000
9:15am 203 2 5 42 47 84.0 86.8 29.78 0.99 0.00 0.00 0.00 0.000
9:16am 203 3 3 42 47 84.0 86.8 29.78 0.99 0.00 0.00 0.00 0.000
9:17am 203 1 4 42 47 84.0 86.9 29.78 0.99 0.00 0.00 0.00 0.000
9:18am 203 1 4 42 47 84.0 86.9 29.78 0.99 0.00 0.00 0.00 0.000
9:19am 204 3 4 42 48 84.0 87.0 29.78 0.99 0.00 0.00 0.00 0.000
9:20am 203 0 4 42 47 84.0 87.1 29.78 0.99 0.00 0.00 0.00 0.000
9:21am 237 1 4 42 47 84.0 87.1 29.78 0.99 0.00 0.00 0.00 0.000
9:22am 237 1 4 42 47 84.2 87.2 29.78 0.99 0.00 0.00 0.00 0.000
9:23am 237 1 4 42 47 84.2 87.3 29.78 0.99 0.00 0.00 0.00 0.000
9:24am 237 1 4 42 46 84.2 87.4 29.78 0.99 0.00 0.00 0.00 0.000
9:25am 237 0 4 42 47 84.2 87.5 29.78 0.99 0.00 0.00 0.00 0.000
9:26am 237 0 4 42 47 84.2 87.6 29.78 0.99 0.00 0.00 0.00 0.000
9:27am 235 3 4 42 47 84.4 87.7 29.78 0.99 0.00 0.00 0.00 0.000
9:28am 201 3 5 42 47 84.4 87.7 29.78 0.99 0.00 0.00 0.00 0.000
9:29am 215 5 5 42 46 84.4 87.7 29.78 0.99 0.00 0.00 0.00 0.000
9:30am 217 4 6 42 46 84.4 87.6 29.78 0.99 0.00 0.00 0.00 0.000
9:31am 217 3 5 42 46 84.4 87.5 29.78 0.99 0.00 0.00 0.00 0.000
9:32am 211 5 5 42 46 84.4 87.4 29.78 0.99 0.00 0.00 0.00 0.000
9:33am 206 4 5 42 46 84.6 87.4 29.78 0.99 0.00 0.00 0.00 0.000
9:34am 221 4 6 42 46 84.6 87.3 29.78 0.99 0.00 0.00 0.00 0.000
9:35am 217 3 6 42 46 84.6 87.4 29.78 0.99 0.00 0.00 0.00 0.000
9:36am 217 0 6 42 46 84.6 87.4 29.78 0.99 0.00 0.00 0.00 0.000
9:37am 217 0 6 42 46 84.6 87.4 29.78 0.99 0.00 0.00 0.00 0.000
9:38am 217 0 6 42 46 84.6 87.5 29.78 0.99 0.00 0.00 0.00 0.000
9:38am 217 1 6 42 46 84.6 87.5 29.78 0.99 0.00 0.00 0.00 0.000
9:40am 217 1 6 42 45 84.6 87.6 29.78 0.99 0.00 0.00 0.00 0.000
9:41am 217 0 6 42 46 84.6 87.6 29.78 0.99 0.00 0.00 0.00 0.000
9:42am 217 0 6 42 46 84.8 87.8 29.78 0.99 0.00 0.00 0.00 0.000
9:43am 217 0 6 42 46 84.8 88.0 29.78 0.99 0.00 0.00 0.00 0.000
9:44am 217 0 6 42 45 84.8 88.2 29.78 0.99 0.00 0.00 0.00 0.000
9:45am 217 2 6 42 45 84.8 88.4 29.78 0.99 0.00 0.00 0.00 0.000
9:46am 213 2 4 42 45 84.8 88.5 29.78 0.99 0.00 0.00 0.00 0.000
9:47am 199 4 4 42 45 84.8 88.4 29.78 0.99 0.00 0.00 0.00 0.000
9:48am 202 3 5 42 45 85.0 88.4 29.78 0.99 0.00 0.00 0.00 0.000
9:49am 215 3 5 42 45 85.0 88.3 29.78 0.99 0.00 0.00 0.00 0.000
9:50am 269 1 5 42 45 85.0 88.3 29.78 0.99 0.00 0.00 0.00 0.000
9:51am 240 3 5 42 45 85.0 88.3 29.78 0.99 0.00 0.00 0.00 0.000
9:52am 240 0 5 42 45 85.0 88.3 29.78 0.99 0.00 0.00 0.00 0.000
9:53am 240 0 5 42 45 85.2 88.3 29.78 0.99 0.00 0.00 0.00 0.000
9:54am 240 1 5 42 45 85.2 88.2 29.78 0.99 0.00 0.00 0.00 0.000
9:55am 240 0 5 42 45 85.2 88.2 29.78 0.99 0.00 0.00 0.00 0.000
9:56am 240 0 5 41 45 85.2 88.2 29.78 0.99 0.00 0.00 0.00 0.000
9:57am 240 0 5 41 45 85.2 88.4 29.78 0.99 0.00 0.00 0.00 0.000
9:58am 240 0 5 41 45 85.2 88.7 29.78 0.99 0.00 0.00 0.00 0.000
9:59am 240 0 5 41 44 85.2 88.6 29.78 0.99 0.00 0.00 0.00 0.000
10:00am 240 0 5 41 44 85.4 88.7 29.78 0.99 0.00 0.00 0.00 0.000
10:01am 240 0 1 41 44 85.4 88.8 29.78 0.99 0.00 0.00 0.00 0.000
10:02am 240 2 3 41 45 85.4 89.0 29.78 0.99 0.00 0.00 0.00 0.000
10:02am 240 1 3 42 45 85.4 89.2 29.78 0.99 0.00 0.00 0.00 0.000
10:03am 180 4 4 42 45 85.4 89.3 29.78 0.99 0.00 0.00 0.00 0.000
10:05am 165 1 5 42 45 85.4 89.3 29.78 0.99 0.00 0.00 0.00 0.000
10:06am 221 7 7 42 45 85.6 89.3 29.78 0.99 0.00 0.00 0.00 0.000
10:07am 200 4 7 42 45 85.6 89.3 29.78 0.99 0.00 0.00 0.00 0.000
10:08am 201 3 7 42 44 85.6 89.2 29.78 0.99 0.00 0.00 0.00 0.000
10:09am 183 1 7 42 44 85.6 89.1 29.78 0.99 0.00 0.00 0.00 0.000
10:10am 178 1 7 41 44 85.6 89.2 29.78 0.99 0.00 0.00 0.00 0.000
10:11am 174 2 7 41 44 85.6 89.1 29.78 0.99 0.00 0.00 0.00 0.000
10:12am 170 2 7 41 44 85.6 89.0 29.78 0.99 0.00 0.00 0.00 0.000
10:13am 170 1 7 41 44 85.6 89.0 29.78 0.99 0.00 0.00 0.00 0.000
10:14am 171 0 7 41 44 85.8 88.9 29.78 0.99 0.00 0.00 0.00 0.000
10:15am 171 0 7 41 44 85.8 88.9 29.78 0.99 0.00 0.00 0.00 0.000
10:16am 209 5 5 41 45 85.8 89.1 29.78 0.99 0.00 0.00 0.00 0.000
10:17am 201 4 9 41 45 85.8 89.2 29.78 0.99 0.00 0.00 0.00 0.000
10:18am 213 2 9 41 45 85.8 89.3 29.78 0.99 0.00 0.00 0.00 0.000
10:19am 213 1 9 41 44 85.8 89.4 29.78 0.99 0.00 0.00 0.00 0.000
10:20am 226 3 9 41 45 85.8 89.5 29.78 0.99 0.00 0.00 0.00 0.000
10:21am 207 4 9 41 45 86.0 89.6 29.78 0.99 0.00 0.00 0.00 0.000
10:22am 207 8 10 41 45 86.0 89.7 29.78 0.99 0.00 0.00 0.00 0.000
10:23am 211 4 10 41 44 86.0 89.6 29.78 0.99 0.00 0.00 0.00 0.000
10:24am 231 3 10 41 44 86.0 89.6 29.78 0.99 0.00 0.00 0.00 0.000
10:24am 230 3 10 41 44 86.0 89.5 29.78 0.99 0.00 0.00 0.00 0.000
10:26am 230 0 10 41 44 86.0 89.5 29.78 0.99 0.00 0.00 0.00 0.000
10:27am 230 0 10 41 44 86.2 89.5 29.78 0.99 0.00 0.00 0.00 0.000
10:28am 230 2 10 41 44 86.2 89.5 29.78 0.99 0.00 0.00 0.00 0.000
10:29am 271 0 10 41 44 86.2 89.6 29.78 0.99 0.00 0.00 0.00 0.000
10:30am 271 0 10 41 44 86.2 89.8 29.78 0.99 0.00 0.00 0.00 0.000
10:31am 271 0 0 41 44 86.2 89.8 29.78 0.99 0.00 0.00 0.00 0.000
10:31am 271 0 1 41 44 86.2 89.9 29.78 0.99 0.00 0.00 0.00 0.000
10:33am 271 0 1 41 44 86.2 90.2 29.78 0.99 0.00 0.00 0.00 0.000
10:33am 221 3 3 41 44 86.2 90.4 29.77 0.99 0.00 0.00 0.00 0.000
10:35am 191 3 5 41 44 86.4 90.5 29.78 0.99 0.00 0.00 0.00 0.000
10:36am 209 4 6 41 43 86.4 90.5 29.77 0.99 0.00 0.00 0.00 0.000
10:37am 205 3 6 41 43 86.4 90.3 29.77 0.99 0.00 0.00 0.00 0.000
10:38am 180 5 6 41 43 86.4 90.2 29.77 0.99 0.00 0.00 0.00 0.000
10:39am 192 5 6 41 43 86.4 90.1 29.77 0.99 0.00 0.00 0.00 0.000
10:40am 212 4 7 41 44 86.6 90.0 29.77 0.99 0.00 0.00 0.00 0.000
10:41am 215 3 7 41 44 86.6 90.0 29.78 0.99 0.00 0.00 0.00 0.000
10:42am 194 3 7 41 44 86.6 90.0 29.77 0.99 0.00 0.00 0.00 0.000
10:43am 171 2 7 41 44 86.6 90.0 29.77 0.99 0.00 0.00 0.00 0.000
10:44am 208 2 7 41 44 86.6 90.0 29.77 0.99 0.00 0.00 0.00 0.000
10:45am 207 1 7 41 44 86.6 90.0 29.77 0.99 0.00 0.00 0.00 0.000
10:46am 208 0 1 41 43 86.6 90.1 29.77 0.99 0.00 0.00 0.00 0.000
10:47am 208 0 1 41 43 86.6 90.2 29.77 0.99 0.00 0.00 0.00 0.000
10:48am 207 0 1 40 43 86.6 90.2 29.77 0.99 0.00 0.00 0.00 0.000
10:49am 176 2 2 40 43 86.8 90.3 29.77 0.99 0.00 0.00 0.00 0.000
10:50am 207 5 5 41 43 86.8 90.5 29.77 0.99 0.00 0.00 0.00 0.000
10:51am 190 4 5 41 43 86.8 90.5 29.77 0.99 0.00 0.00 0.00 0.000
10:52am 199 4 7 41 43 86.8 90.6 29.77 0.99 0.00 0.00 0.00 0.000
10:53am 208 5 7 41 44 86.8 90.7 29.77 0.99 0.00 0.00 0.00 0.000
10:54am 228 2 7 41 43 86.8 90.7 29.77 0.99 0.00 0.00 0.00 0.000
10:55am 186 5 7 41 44 86.8 90.8 29.77 0.99 0.00 0.00 0.00 0.000
10:56am 194 3 7 41 43 86.8 90.8 29.77 0.99 0.00 0.00 0.00 0.000
10:57am 203 3 7 40 43 87.0 90.7 29.77 0.99 0.00 0.00 0.00 0.000
10:58am 197 5 7 40 43 87.0 90.6 29.76 0.99 0.00 0.00 0.00 0.000
10:59am 199 4 7 40 43 87.0 90.5 29.76 0.99 0.00 0.00 0.00 0.000
11:00am 199 0 7 40 42 87.0 90.3 29.76 0.99 0.00 0.00 0.00 0.000
11:01am 203 2 3 40 43 87.0 90.2 29.77 0.99 0.00 0.00 0.00 0.000
11:02am 203 2 3 40 43 87.0 90.3 29.77 0.99 0.00 0.00 0.00 0.000
11:03am 214 2 4 40 44 87.0 90.4 29.77 0.99 0.00 0.00 0.00 0.000
11:04am 214 0 4 40 44 87.2 90.7 29.77 0.99 0.00 0.00 0.00 0.000
11:05am 215 2 4 40 43 87.2 90.9 29.77 0.99 0.00 0.00 0.00 0.000
11:06am 215 0 4 40 42 87.2 91.1 29.77 0.99 0.00 0.00 0.00 0.000
11:07am 215 0 4 40 42 87.2 91.2 29.77 0.99 0.00 0.00 0.00 0.000
11:08am 226 3 7 40 42 87.2 91.3 29.76 0.99 0.00 0.00 0.00 0.000
11:09am 186 4 7 40 43 87.2 91.5 29.77 0.99 0.00 0.00 0.00 0.000
11:10am 182 1 7 40 42 87.2 91.4 29.76 0.99 0.00 0.00 0.00 0.000
11:11am 182 0 7 40 41 87.2 91.3 29.76 0.99 0.00 0.00 0.00 0.000
11:12am 182 2 7 40 41 87.4 91.3 29.77 0.99 0.00 0.00 0.00 0.000
11:13am 182 3 7 40 41 87.4 91.3 29.77 0.99 0.00 0.00 0.00 0.000
11:14am 192 2 7 40 42 87.4 91.3 29.77 0.99 0.00 0.00 0.00 0.000
11:15am 192 1 7 40 42 87.4 91.4 29.76 0.99 0.00 0.00 0.00 0.000
11:16am 155 3 5 39 42 87.4 91.4 29.76 0.99 0.00 0.00 0.00 0.000
11:17am 195 5 6 40 42 87.4 91.5 29.76 0.99 0.00 0.00 0.00 0.000
11:18am 242 2 6 39 42 87.4 91.6 29.76 0.99 0.00 0.00 0.00 0.000
11:19am 238 3 6 39 42 87.4 91.7 29.76 0.99 0.00 0.00 0.00 0.000
11:20am 284 1 6 39 42 87.4 91.8 29.76 0.99 0.00 0.00 0.00 0.000
11:21am 261 6 7 39 41 87.6 91.9 29.76 0.99 0.00 0.00 0.00 0.000
11:22am 244 2 7 39 41 87.6 92.0 29.76 0.99 0.00 0.00 0.00 0.000
11:23am 290 2 7 40 41 87.6 92.0 29.76 0.99 0.00 0.00 0.00 0.000
11:24am 291 0 7 40 40 87.6 91.9 29.76 0.99 0.00 0.00 0.00 0.000
11:25am 291 0 7 40 41 87.6 92.0 29.76 0.99 0.00 0.00 0.00 0.000
11:26am 291 0 7 39 41 87.6 92.1 29.76 0.99 0.00 0.00 0.00 0.000
11:27am 256 3 7 39 40 87.6 92.2 29.76 0.99 0.00 0.00 0.00 0.000
11:28am 257 0 7 39 40 87.6 92.2 29.76 0.99 0.00 0.00 0.00 0.000
11:29am 257 0 7 39 40 87.6 92.1 29.76 0.99 0.00 0.00 0.00 0.000
11:30am 310 4 7 39 40 87.6 92.1 29.76 0.99 0.00 0.00 0.00 0.000
11:31am 260 1 5 39 40 87.8 92.3 29.76 0.99 0.00 0.00 0.00 0.000
11:32am 261 1 5 39 40 87.8 92.5 29.76 0.99 0.00 0.00 0.00 0.000
11:33am 261 0 5 39 40 87.8 92.6 29.76 0.99 0.00 0.00 0.00 0.000
11:34am 261 0 5 39 39 87.8 92.6 29.76 0.99 0.00 0.00 0.00 0.000
11:35am 261 0 5 39 39 87.8 92.7 29.76 0.99 0.00 0.00 0.00 0.000
11:36am 262 1 5 39 40 87.8 92.7 29.76 0.99 0.00 0.00 0.00 0.000
11:37am 252 2 5 39 40 87.8 92.9 29.76 0.99 0.00 0.00 0.00 0.000
11:38am 296 2 5 39 39 87.8 92.9 29.76 0.99 0.00 0.00 0.00 0.000
11:39am 309 0 5 39 39 87.8 92.8 29.76 0.99 0.00 0.00 0.00 0.000
11:40am 226 4 5 39 40 87.8 92.8 29.76 0.99 0.00 0.00 0.00 0.000
11:41am 190 2 5 39 40 88.0 93.0 29.76 0.99 0.00 0.00 0.00 0.000
11:42am 186 4 7 39 39 88.0 93.0 29.76 0.99 0.00 0.00 0.00 0.000
11:43am 196 7 8 39 39 88.0 93.1 29.76 0.99 0.00 0.00 0.00 0.000
11:44am 232 4 8 38 40 88.0 93.2 29.76 0.99 0.00 0.00 0.00 0.000
11:45am 176 3 8 38 40 88.0 93.2 29.76 0.99 0.00 0.00 0.00 0.000
11:46am 157 6 6 38 39 88.0 93.1 29.76 0.99 0.00 0.00 0.00 0.000
11:47am 213 10 10 38 39 88.0 92.9 29.76 0.99 0.00 0.00 0.00 0.000
11:48am 173 6 10 38 40 88.0 92.8 29.76 0.99 0.00 0.00 0.00 0.000
11:49am 195 4 10 38 39 88.0 92.7 29.76 0.99 0.00 0.00 0.00 0.000
11:50am 260 7 10 38 39 88.0 92.6 29.76 0.99 0.00 0.00 0.00 0.000
11:51am 214 7 10 38 39 88.0 92.5 29.76 0.99 0.00 0.00 0.00 0.000
11:52am 219 3 10 38 39 88.0 92.5 29.76 0.99 0.00 0.00 0.00 0.000
11:53am 249 4 10 38 40 88.2 92.5 29.76 0.99 0.00 0.00 0.00 0.000
11:54am 270 2 10 38 39 88.2 92.5 29.76 0.99 0.00 0.00 0.00 0.000
11:55am 257 1 10 38 39 88.2 92.6 29.76 0.99 0.00 0.00 0.00 0.000
11:56am 253 0 10 38 39 88.2 92.8 29.76 0.99 0.00 0.00 0.00 0.000
11:57am 199 5 10 38 39 88.2 92.9 29.76 0.99 0.00 0.00 0.00 0.000
11:58am 211 7 10 38 39 88.2 93.0 29.76 0.99 0.00 0.00 0.00 0.000
11:59am 316 5 10 38 39 88.2 93.0 29.76 0.99 0.00 0.00 0.00 0.000
12:00pm 201 8 10 38 39 88.2 93.0 29.76 0.99 0.00 0.00 0.00 0.000
12:01pm 203 4 8 38 39 88.2 92.9 29.76 0.99 0.00 0.00 0.00 0.000
12:01pm 178 3 8 38 39 88.2 92.8 29.76 0.99 0.00 0.00 0.00 0.000
12:03pm 188 1 8 38 39 88.2 92.7 29.76 0.99 0.00 0.00 0.00 0.000
12:04pm 191 2 8 38 39 88.2 92.7 29.76 0.99 0.00 0.00 0.00 0.000
12:04pm 232 5 8 38 40 88.2 92.7 29.76 0.99 0.00 0.00 0.00 0.000
12:06pm 251 0 8 38 39 88.4 92.8 29.75 0.99 0.00 0.00 0.00 0.000
12:07pm 251 0 8 38 39 88.4 92.8 29.76 0.99 0.00 0.00 0.00 0.000
12:08pm 311 1 8 38 39 88.4 92.9 29.75 0.99 0.00 0.00 0.00 0.000
12:09pm 314 2 8 38 39 88.4 93.1 29.75 0.99 0.00 0.00 0.00 0.000
12:10pm 313 0 8 38 38 88.4 93.3 29.75 0.99 0.00 0.00 0.00 0.000
12:11pm 220 2 8 38 38 88.4 93.5 29.75 0.99 0.00 0.00 0.00 0.000
12:12pm 221 5 8 38 39 88.4 93.7 29.75 0.99 0.00 0.00 0.00 0.000
12:13pm 209 3 10 38 38 88.4 93.8 29.75 0.99 0.00 0.00 0.00 0.000
12:14pm 198 9 10 37 38 88.4 93.7 29.75 0.99 0.00 0.00 0.00 0.000
12:15pm 194 4 10 37 38 88.4 93.6 29.75 0.99 0.00 0.00 0.00 0.000
12:16pm 192 6 6 37 38 88.4 93.6 29.75 0.99 0.00 0.00 0.00 0.000
12:17pm 228 4 7 37 38 88.4 93.4 29.75 0.99 0.00 0.00 0.00 0.000
12:17pm 232 0 7 37 38 88.6 93.4 29.75 0.99 0.00 0.00 0.00 0.000
12:19pm 237 7 10 37 38 88.6 93.4 29.75 0.99 0.00 0.00 0.00 0.000
12:19pm 239 3 10 37 38 88.6 93.4 29.75 0.99 0.00 0.00 0.00 0.000
12:21pm 242 0 10 37 38 88.6 93.4 29.75 0.99 0.00 0.00 0.00 0.000
12:21pm 242 2 10 37 38 88.6 93.4 29.75 0.99 0.00 0.00 0.00 0.000
12:23pm 305 0 10 37 38 88.6 93.4 29.75 0.99 0.00 0.00 0.00 0.000
12:24pm 201 6 10 37 38 88.6 93.6 29.75 0.99 0.00 0.00 0.00 0.000
12:25pm 184 3 10 37 38 88.6 93.7 29.75 0.99 0.00 0.00 0.00 0.000
12:26pm 194 4 10 37 38 88.6 93.7 29.74 0.99 0.00 0.00 0.00 0.000
12:27pm 194 2 10 37 37 88.6 93.7 29.75 0.99 0.00 0.00 0.00 0.000
12:28pm 194 1 10 37 38 88.6 93.6 29.74 0.99 0.00 0.00 0.00 0.000
12:29pm 194 1 10 37 38 88.6 93.8 29.74 0.99 0.00 0.00 0.00 0.000
12:30pm 194 0 10 37 38 88.6 93.9 29.74 0.99 0.00 0.00 0.00 0.000
12:31pm 181 2 2 37 38 88.9 94.0 29.74 0.99 0.00 0.00 0.00 0.000
12:32pm 80 4 4 37 37 88.9 94.1 29.74 0.99 0.00 0.00 0.00 0.000
12:33pm 65 5 5 37 37 88.9 94.2 29.74 0.99 0.00 0.00 0.00 0.000
12:34pm 60 4 6 37 37 88.9 94.2 29.74 0.99 0.00 0.00 0.00 0.000
12:35pm 37 6 6 37 37 88.9 94.5 29.74 0.99 0.00 0.00 0.00 0.000
12:36pm 46 4 6 37 36 88.9 94.6 29.74 0.99 0.00 0.00 0.00 0.000
12:37pm 84 5 6 37 36 88.9 94.6 29.74 0.99 0.00 0.00 0.00 0.000
12:38pm 45 1 6 37 36 88.9 94.5 29.74 0.99 0.00 0.00 0.00 0.000
12:39pm 17 3 6 37 36 88.9 94.5 29.74 0.99 0.00 0.00 0.00 0.000
12:40pm 21 3 6 37 36 88.9 94.5 29.74 0.99 0.00 0.00 0.00 0.000
12:40pm 351 3 6 37 36 88.9 94.5 29.74 0.99 0.00 0.00 0.00 0.000
12:42pm 29 1 6 36 36 88.9 94.6 29.74 0.99 0.00 0.00 0.00 0.000
12:43pm 208 3 6 36 36 88.9 94.8 29.74 0.99 0.00 0.00 0.00 0.000
12:44pm 197 3 9 36 37 88.9 94.8 29.74 0.99 0.00 0.00 0.00 0.000
12:44pm 181 5 9 36 36 88.9 94.9 29.73 0.99 0.00 0.00 0.00 0.000
12:46pm 203 4 6 36 36 88.9 94.9 29.74 0.99 0.00 0.00 0.00 0.000
12:47pm 252 5 7 36 37 88.9 94.9 29.74 0.99 0.00 0.00 0.00 0.000
12:48pm 214 3 7 36 36 88.9 94.8 29.73 0.99 0.00 0.00 0.00 0.000
12:49pm 194 2 7 36 36 89.1 94.8 29.73 0.99 0.00 0.00 0.00 0.000
12:50pm 213 5 7 36 37 89.1 94.9 29.73 0.99 0.00 0.00 0.00 0.000
12:51pm 197 5 7 36 37 89.1 95.0 29.73 0.99 0.00 0.00 0.00 0.000
12:52pm 185 0 7 36 36 89.1 95.0 29.73 0.99 0.00 0.00 0.00 0.000
12:53pm 184 0 7 36 36 89.1 94.9 29.73 0.99 0.00 0.00 0.00 0.000
12:54pm 179 1 7 36 36 89.1 94.9 29.73 0.99 0.00 0.00 0.00 0.000
12:55pm 180 1 7 36 36 89.1 94.9 29.73 0.99 0.00 0.00 0.00 0.000
12:56pm 155 3 7 36 36 89.1 95.1 29.73 0.99 0.00 0.00 0.00 0.000
12:57pm 209 3 7 36 36 89.1 95.1 29.73 0.99 0.00 0.00 0.00 0.000
12:58pm 239 4 7 36 36 89.1 95.2 29.73 0.99 0.00 0.00 0.00 0.000
12:59pm 288 2 7 36 36 89.1 95.4 29.73 0.99 0.00 0.00 0.00 0.000
1:00pm 219 2 7 36 36 89.1 95.6 29.73 0.99 0.00 0.00 0.00 0.000
1:01pm 295 2 5 36 35 89.1 95.8 29.72 0.99 0.00 0.00 0.00 0.000
1:02pm 234 8 10 36 35 89.1 95.9 29.72 0.99 0.00 0.00 0.00 0.000
1:03pm 255 2 10 36 35 89.1 95.9 29.72 0.99 0.00 0.00 0.00 0.000
1:03pm 221 3 10 36 36 89.1 95.9 29.73 0.99 0.00 0.00 0.00 0.000
1:05pm 257 2 10 36 35 89.1 95.9 29.72 0.99 0.00 0.00 0.00 0.000
1:06pm 303 1 10 36 35 89.1 95.9 29.72 0.99 0.00 0.00 0.00 0.000
1:07pm 345 4 10 36 35 89.1 95.9 29.72 0.99 0.00 0.00 0.00 0.000
1:08pm 357 6 10 36 35 89.1 96.0 29.72 0.99 0.00 0.00 0.00 0.000
1:09pm 355 5 10 36 34 89.1 96.0 29.72 0.99 0.00 0.00 0.00 0.000
1:10pm 15 1 10 36 34 89.3 96.0 29.72 0.99 0.00 0.00 0.00 0.000
1:11pm 326 3 10 36 34 89.3 95.9 29.72 0.99 0.00 0.00 0.00 0.000
1:12pm 268 2 10 36 34 89.3 95.9 29.72 0.99 0.00 0.00 0.00 0.000
1:13pm 184 3 10 35 34 89.3 95.9 29.72 0.99 0.00 0.00 0.00 0.000
1:14pm 195 9 12 35 34 89.3 96.0 29.72 0.99 0.00 0.00 0.00 0.000
1:15pm 313 3 12 35 34 89.3 95.9 29.72 0.99 0.00 0.00 0.00 0.000
1:16pm 221 2 5 35 35 89.3 96.1 29.72 0.99 0.00 0.00 0.00 0.000
1:17pm 242 3 5 35 35 89.3 96.2 29.72 0.99 0.00 0.00 0.00 0.000
1:18pm 244 3 5 35 34 89.3 96.2 29.72 0.99 0.00 0.00 0.00 0.000
1:19pm 282 1 5 35 34 89.3 96.2 29.72 0.99 0.00 0.00 0.00 0.000
1:20pm 176 10 10 35 34 89.3 96.1 29.72 0.99 0.00 0.00 0.00 0.000
1:21pm 245 2 10 35 34 89.3 96.2 29.72 0.99 0.00 0.00 0.00 0.000
1:22pm 248 3 10 35 34 89.3 96.3 29.72 0.99 0.00 0.00 0.00 0.000
1:23pm 241 0 10 35 34 89.3 96.3 29.72 0.99 0.00 0.00 0.00 0.000
1:23pm 242 1 10 35 34 89.3 96.5 29.72 0.99 0.00 0.00 0.00 0.000
1:25pm 213 1 10 35 34 89.3 96.6 29.72 0.99 0.00 0.00 0.00 0.000
1:26pm 184 2 10 35 34 89.3 96.7 29.71 0.99 0.00 0.00 0.00 0.000
1:27pm 147 7 10 35 34 89.3 96.6 29.71 0.99 0.00 0.00 0.00 0.000
1:28pm 193 9 10 35 33 89.3 96.5 29.71 0.99 0.00 0.00 0.00 0.000
1:29pm 201 7 10 35 33 89.3 96.4 29.72 0.99 0.00 0.00 0.00 0.000
1:30pm 190 10 12 35 33 89.3 96.1 29.71 0.99 0.00 0.00 0.00 0.000
1:31pm 238 9 13 35 33 89.3 95.9 29.71 0.99 0.00 0.00 0.00 0.000
1:32pm 217 4 13 35 34 89.3 95.8 29.71 0.99 0.00 0.00 0.00 0.000
1:33pm 198 7 13 35 34 89.3 95.8 29.71 0.99 0.00 0.00 0.00 0.000
1:34pm 203 5 13 35 34 89.3 95.8 29.71 0.99 0.00 0.00 0.00 0.000
1:34pm 170 4 13 35 34 89.3 95.7 29.71 0.99 0.00 0.00 0.00 0.000
1:36pm 164 4 13 35 33 89.3 95.7 29.71 0.99 0.00 0.00 0.00 0.000
1:37pm 180 6 13 35 34 89.3 95.7 29.71 0.99 0.00 0.00 0.00 0.000
1:38pm 212 2 13 35 34 89.3 95.8 29.71 0.99 0.00 0.00 0.00 0.000
1:39pm 215 0 13 35 35 89.5 96.1 29.71 0.99 0.00 0.00 0.00 0.000
1:40pm 176 3 13 35 34 89.5 96.4 29.71 0.99 0.00 0.00 0.00 0.000
1:41pm 241 0 13 35 34 89.5 96.7 29.71 0.99 0.00 0.00 0.00 0.000
1:42pm 241 0 13 35 33 89.5 96.8 29.71 0.99 0.00 0.00 0.00 0.000
1:43pm 249 4 13 35 33 89.5 97.0 29.71 0.99 0.00 0.00 0.00 0.000
1:44pm 323 4 13 34 33 89.5 97.1 29.71 0.99 0.00 0.00 0.00 0.000
1:44pm 209 7 13 34 33 89.5 97.0 29.71 0.99 0.00 0.00 0.00 0.000
1:46pm 216 10 11 34 33 89.5 96.8 29.71 0.99 0.00 0.00 0.00 0.000
1:47pm 195 2 11 34 33 89.5 96.7 29.71 0.99 0.00 0.00 0.00 0.000
1:48pm 202 7 11 34 33 89.5 96.5 29.71 0.99 0.00 0.00 0.00 0.000
1:49pm 214 4 13 34 33 89.5 96.4 29.71 0.99 0.00 0.00 0.00 0.000
1:50pm 221 5 13 34 33 89.5 96.3 29.71 0.99 0.00 0.00 0.00 0.000
1:50pm 246 2 13 34 34 89.5 96.3 29.71 0.99 0.00 0.00 0.00 0.000
1:52pm 239 5 13 34 34 89.5 96.5 29.71 0.99 0.00 0.00 0.00 0.000
1:53pm 253 3 13 34 33 89.5 96.5 29.71 0.99 0.00 0.00 0.00 0.000
1:53pm 211 13 13 34 33 89.5 96.5 29.71 0.99 0.00 0.00 0.00 0.000
1:55pm 222 8 13 34 33 89.5 96.5 29.71 0.99 0.00 0.00 0.00 0.000
1:56pm 228 1 13 34 33 89.5 96.5 29.71 0.99 0.00 0.00 0.00 0.000
1:57pm 228 0 13 34 33 89.5 96.7 29.70 0.99 0.00 0.00 0.00 0.000
1:57pm 215